Location: Charlottetown
(46.2330°N, 63.1330°W)
Time: 03:06:15
(UTC-03:00)

Daily predictions for brighter satellites

Satellite Brightness Start Highest point End
(mag) Time Altitude Azimuth Time Altitude Azimuth Time Altitude Azimuth
CZ-2C R/B 3.6 00:00:24 10° NNE 00:04:06 38° NE 00:04:06 38° NE
Cosmos 2219 Rocket 3.8 00:07:25 17° WSW 00:10:57 32° NW 00:15:59 10° N
Cosmos 2184 Rocket 4.0 00:14:20 76° NNE 00:14:20 76° NNE 00:20:05 10° N
Cosmos 2074 Rocket 4.0 00:14:31 79° NNE 00:14:31 79° NNE 00:20:25 10° N
ATLAS CENTAUR R/B 3.1 00:02:42 10° NW 00:14:57 67° NNE 00:15:25 65° ENE
Nadezhda 3 Rocket 4.2 00:16:24 10° N 00:22:20 61° ENE 00:22:20 61° ENE
SL-16 R/B 2.7 00:25:43 57° NNE 00:25:43 57° NNE 00:30:10 10° NNE
Meteor 1-24 Rocket 4.1 00:24:39 10° N 00:29:43 66° NNE 00:29:43 66° NNE
Cosmos 1943 Rocket 3.8 00:27:02 10° N 00:31:31 24° NE 00:32:16 24° ENE
ALOS 2 4.2 00:34:58 32° N 00:34:58 32° N 00:37:24 10° N
Lacrosse 5 4.0 00:30:41 10° WNW 00:34:49 24° N 00:38:57 10° NE
H-2A R/B 4.5 00:40:43 17° WNW 00:40:43 17° WNW 00:42:29 10° NW
Meteor 2-5 Rocket 4.4 00:35:13 10° NNW 00:40:14 52° WNW 00:40:14 52° WNW
CENTAUR R/B 3.4 00:36:04 10° NW 00:43:31 50° WSW 00:43:31 50° WSW
Cosmos 2333 Rocket 4.2 00:42:10 14° W 00:45:37 23° NW 00:50:06 10° N
Cosmos 1898 Rocket 4.5 00:50:05 10° NNW 00:54:04 43° NNE 00:54:04 43° NNE
Mayak 1.0 00:53:15 10° NNE 00:54:48 22° NNE 00:54:48 22° NNE
Cosmos 2369 Rocket 2.8 00:53:14 10° NNW 00:58:03 53° NNE 00:58:03 53° NNE
Cosmos 2237 Rocket 4.0 00:57:21 20° W 00:59:25 25° NW 01:04:03 10° N
USA 215 3.6 01:01:34 48° E 01:03:13 62° NNE 01:09:39 10° NW
Cosmos 2154 Rocket 4.3 01:14:05 61° NW 01:14:05 61° NW 01:19:37 10° N
Cosmos 1943 4.4 01:15:42 33° ENE 01:15:42 33° ENE 01:19:11 10° NE
COSMOS 2455 4.4 01:10:36 10° NW 01:13:48 25° WNW 01:13:48 25° WNW
SL-8 Rocket 4.1 01:40:35 71° N 01:40:35 71° N 01:46:07 10° N
CZ-2C R/B 4.2 01:41:13 10° N 01:45:37 27° WNW 01:45:37 27° WNW
Cosmos 2218 Rocket 4.1 01:54:18 75° NNW 01:54:18 75° NNW 02:00:13 10° N
Cosmos 1603 4.5 02:00:49 44° NW 02:00:49 44° NW 02:05:45 10° NNE
SL-16 R/B 4.2 02:05:55 17° ESE 02:09:24 29° ENE 02:14:34 10° N
SL-16 R/B 4.3 02:07:35 16° WNW 02:09:26 19° NW 02:13:22 10° N
Cosmos 1763 Rocket 4.2 02:16:24 51° NNE 02:16:24 51° NNE 02:20:11 10° NNE
BREEZE-M DEB (TANK) 4.3 02:16:23 55° E 02:16:23 55° E 02:25:58 10° ENE
Cosmos 1656 Rocket 4.0 02:09:46 10° NNW 02:15:17 61° NE 02:15:17 61° NE
Cosmos 1943 Rocket 3.1 02:10:15 10° NNW 02:13:45 39° NW 02:13:45 39° NW
Lacrosse 5 3.5 02:14:29 10° NW 02:19:03 32° NNE 02:23:36 10° E
CZ-2D R/B 4.1 02:18:33 10° NE 02:22:04 18° E 02:22:56 17° ESE
Meteor 1-11 4.4 02:23:13 10° N 02:28:13 71° N 02:28:13 71° N
Mayak 1.4 02:30:19 10° NNW 02:31:27 13° NW 02:31:27 13° NW
USA 229 DEB 3.7 02:31:52 10° NW 02:39:03 87° NE 02:41:13 50° SE
USA 229 3.7 02:31:59 10° NW 02:39:09 86° NE 02:41:24 49° SE
COBE Rocket 4.4 02:34:18 10° NNE 02:38:35 55° ENE 02:38:35 55° ENE
Cosmos 2369 Rocket 4.1 02:38:01 10° NW 02:39:48 17° WNW 02:39:48 17° WNW
USA 215 4.1 02:48:54 34° W 02:48:54 34° W 02:52:41 10° WNW
Helios 1A Rocket 4.3 02:42:27 10° NNE 02:45:10 38° NE 02:45:10 38° NE
Cosmos 1125 Rocket 3.9 02:42:23 10° NNW 02:46:34 58° NNW 02:46:34 58° NNW
ADEOS Rocket 2.8 02:44:13 10° NNE 02:49:41 68° ESE 02:49:45 68° ESE
Meteor 2-1 Rocket 4.3 02:50:48 68° E 02:50:49 68° E 02:56:19 10° NNE
Cosmos 2098 Rocket 3.7 02:53:04 65° ENE 02:53:04 65° ENE 02:57:18 10° NNE
Cosmos 1626 4.4 02:50:45 10° NNW 02:52:03 20° NNW 02:52:03 20° NNW
Cosmos 1943 4.3 02:57:30 32° WNW 02:58:00 33° NW 03:03:08 10° NNE
Cosmos 1726 4.1 03:06:34 24° ENE 03:06:34 24° ENE 03:09:16 10° NE
Cosmos 841 Rocket 4.2 03:07:14 43° NW 03:07:14 43° NW 03:11:55 10° N
NOSS 3-1 (C) 4.1 03:04:02 10° NW 03:11:29 76° NE 03:19:49 10° SE
Cosmos 2285 Rocket 4.3 03:10:13 48° SSE 03:11:35 58° ESE 03:17:52 10° NNE
H-2A R/B 4.3 03:09:47 10° N 03:11:40 21° NW 03:11:40 21° NW
BREEZE-M DEB (TANK) 3.3 03:08:54 10° W 03:20:36 88° S 03:23:26 10° E
BREEZE-M DEB (TANK) 3.2 03:22:48 46° E 03:22:48 46° E 03:26:51 10° E
Cosmos 292 Rocket 4.1 03:22:31 56° ESE 03:22:44 57° ESE 03:27:28 10° NNE
UNK 3.7 03:24:09 83° NE 03:24:09 83° NE 03:28:40 10° NNW
IRS-1C 4.0 03:19:23 10° NNE 03:24:46 82° ESE 03:25:27 68° S
MOS 1 Rocket 3.8 03:23:09 10° NNE 03:27:23 47° E 03:27:57 44° ESE
AQUA 3.7 03:25:09 10° N 03:29:56 77° WNW 03:29:58 77° W
ARIANE 5 R/B 3.0 03:24:48 10° NNE 03:29:59 55° E 03:31:18 43° SSE
NPP 3.6 03:25:11 10° N 03:30:34 68° WNW 03:31:06 63° WSW
Cosmos 2123 Rocket 3.9 03:24:47 10° NNW 03:30:59 65° W 03:31:58 57° SW
Cosmos 1821 Rocket 4.3 03:32:26 46° W 03:33:13 49° WNW 03:39:14 10° N
Cosmos 1315 Rocket 3.1 03:29:30 10° N 03:33:17 66° NE 03:33:17 66° NE
Cosmos 1633 Rocket 3.6 03:29:14 10° N 03:33:33 55° ENE 03:34:26 46° ESE
Resurs 1-4 Rocket 2.1 03:33:09 10° NNE 03:38:26 78° ESE 03:39:37 55° S
Cosmos 1934 Rocket 4.1 03:39:33 49° WSW 03:40:31 55° WNW 03:46:30 10° N
MOZ.5/SAFIR/RUBIN 5/SL-8 4.0 03:45:56 33° SSE 03:47:58 69° ENE 03:52:39 10° N
SL-27 R/B 2.9 03:49:20 56° NNE 03:49:20 56° NNE 03:52:10 10° NNE
Cosmos 540 Rocket 4.2 03:48:49 36° WNW 03:49:24 37° WNW 03:54:09 10° N
Cosmos 2228 Rocket 4.2 03:47:33 26° SE 03:49:26 39° E 03:53:34 10° NNE
UNKNOWN OBJECT B 3.8 03:47:17 10° NNE 03:51:13 44° E 03:52:20 35° SE
Cosmos 1833 Rocket 4.4 03:47:56 13° SSE 03:51:41 26° ESE 03:56:14 10° NE
SL-16 R/B 2.6 03:51:01 44° SSW 03:52:40 57° W 03:58:47 10° NNW
Cosmos 2221 3.3 03:57:03 37° WNW 03:57:03 37° WNW 04:00:49 10° N
Cosmos 773 Rocket 4.5 03:54:50 34° SSE 03:56:55 56° ESE 04:02:07 10° NNE
Cosmos 1328 Rocket 4.1 03:56:18 36° SSE 03:57:45 54° E 04:02:02 10° NNE
Cosmos 1400 Rocket 4.5 03:58:01 10° NNW 03:59:52 21° NW 03:59:52 21° NW
IRS-1D 3.5 03:57:14 10° N 04:02:23 70° WNW 04:03:54 46° SW
Cosmos 1605 Rocket 4.2 04:00:25 40° SW 04:02:26 56° WNW 04:08:45 10° N
Lacrosse 5 1.7 03:57:25 10° NW 04:02:32 87° SW 04:07:37 10° SE
CZ-2D R/B 2.1 03:57:21 10° N 04:02:41 69° WNW 04:04:15 45° SW
COSMOS 2406 3.6 04:03:18 38° WSW 04:04:57 50° WNW 04:10:31 10° NNE
Cosmos 1980 Rocket 4.1 04:01:42 10° N 04:06:36 30° NE 04:11:30 10° ESE
Cosmos 1666 Rocket 3.7 04:05:51 10° NNW 04:10:10 50° W 04:10:28 49° WSW
Spot 4 Rocket 4.2 04:06:54 10° N 04:11:59 57° WNW 04:13:33 40° SW
Cosmos 1300 2.6 04:14:14 62° WSW 04:14:38 68° W 04:18:28 10° N
Cosmos 2278 3.6 04:13:00 10° NNW 04:18:42 87° WSW 04:24:21 10° SSE
Cosmos 2061 Rocket 4.2 04:13:48 18° S 04:18:43 76° E 04:25:08 10° NNE
Cosmos 1933 Rocket 3.7 04:14:29 10° N 04:18:59 76° E 04:22:36 15° SSE
Cosmos 1151 Rocket 3.6 04:17:43 21° SSE 04:20:21 54° E 04:24:32 10° NNE
Cosmos 2016 Rocket 4.3 04:15:17 13° S 04:20:41 63° E 04:26:43 10° NNE
Cosmos 1697 Rocket 3.3 04:15:19 10° NNW 04:20:56 58° ENE 04:26:30 10° SE
ADEOS II 3.4 04:16:49 10° NNE 04:21:40 36° E 04:26:28 10° SSE
CZ-2D R/B 3.2 04:20:04 10° NNE 04:24:05 90° ESE 04:25:34 38° SSW
COSMOS 2487 3.6 04:22:48 24° SSE 04:24:25 38° ESE 04:27:45 10° NE
ADEOS 3.7 04:23:07 10° N 04:28:14 56° WNW 04:30:32 31° SW
ATLAS 2AS CENTAUR R/B 4.0 04:20:30 10° NW 04:28:20 49° NE 04:35:42 10° ESE
Cosmos 1455 3.5 04:26:54 12° SSE 04:30:03 37° E 04:33:33 10° NNE
ADEOS Rocket 4.3 04:30:54 10° NNW 04:34:46 20° WNW 04:36:42 17° W
NOSS 3-1 (A) 4.1 04:27:34 10° NW 04:34:58 55° WSW 04:43:06 10° SSE
Meteor 2-17 Rocket 4.5 04:31:34 26° SSW 04:35:06 61° WNW 04:41:10 10° N
Sich 1 4.1 04:32:58 10° NNW 04:36:37 26° W 04:36:43 26° W
Meteor 2-2 Rocket 4.4 04:34:54 24° SSW 04:38:41 67° WNW 04:44:43 10° N
Cosmos 1726 3.5 04:41:11 23° WNW 04:41:25 23° WNW 04:44:29 10° NNW
Cosmos 2100 Rocket 4.1 04:38:31 21° SSW 04:42:52 63° WNW 04:49:11 10° N
USA 161 2.0 04:45:05 30° N 04:45:05 30° N 04:46:12 10° N
Cosmos 2082 Rocket 2.4 04:40:18 17° SSW 04:44:42 68° ESE 04:50:19 10° NNE
Cosmos 1802 Rocket 4.0 04:40:30 17° SSW 04:45:30 74° W 04:51:51 10° N
Okean O Rocket 3.1 04:43:16 10° NNE 04:47:20 35° E 04:51:22 10° SSE
OE (NEXTSAT) 4.4 04:56:38 27° WSW 04:58:24 70° SSE 05:01:59 10° E
Cosmos 1656 3.8 04:54:41 10° NW 05:00:14 53° WSW 05:05:44 10° S
CZ-4B R/B 4.3 04:56:59 10° NNE 05:02:13 44° E 05:07:19 10° S
Cosmos 1470 Rocket 4.3 04:58:58 10° NNW 05:02:51 32° W 05:05:23 18° SW
Cosmos 2173 Rocket 4.3 04:58:05 17° SW 05:02:51 49° WNW 05:09:02 10° N
Tsikada Rocket 4.0 04:56:52 10° N 05:03:14 85° W 05:09:37 10° S
Cosmos 923 Rocket 4.0 04:59:35 17° SSW 05:03:36 69° WNW 05:08:53 10° NNE
Cosmos 1408 3.4 05:03:29 10° N 05:07:03 51° ENE 05:10:34 10° SSE
Cosmos 1624 Rocket 4.4 05:03:00 10° NNW 05:08:16 68° ENE 05:13:28 10° SSE
ARIANE 5 R/B 3.9 05:04:39 10° N 05:08:43 23° WNW 05:11:38 15° WSW
Cosmos 1892 3.3 05:08:34 10° NNW 05:12:07 36° W 05:15:36 10° SSW
BREEZE M DEB (TANK) 4.4 05:09:46 16° WSW 05:12:36 27° SSW 05:22:27 10° SSE
Meteor 2-3 Rocket 4.0 05:07:14 10° NNW 05:12:41 49° W 05:18:07 10° SSW
Cosmos 1515 Rocket 4.4 05:11:06 17° SW 05:13:53 34° WNW 05:17:56 10° N
Shenzhou-11 Module 2.6 05:12:25 21° SW 05:14:05 41° S 05:17:01 10° ESE
Cosmos 2369 4.4 05:09:20 10° NW 05:14:18 32° WSW 05:19:15 10° SSW
Tiangong 2 1.9 05:13:48 20° SW 05:15:38 39° S 05:18:40 10° E
Cosmos 2084 3.5 05:12:35 13° SSW 05:16:03 67° SE 05:19:53 10° NE
Landsat 4 4.0 05:12:58 10° SSE 05:16:42 69° ENE 05:20:28 10° N
Cosmos 1825 2.6 05:13:29 10° N 05:17:17 67° E 05:21:05 10° SSE
Resurs 1-4 Rocket 3.8 05:14:18 10° NNW 05:17:40 17° WNW 05:20:42 11° W
Cosmos 2322 Rocket 3.9 05:12:33 10° NNW 05:17:48 37° NE 05:23:00 10° ESE
Cosmos 1680 Rocket 3.6 05:16:05 11° SSW 05:21:03 63° WNW 05:26:23 10° NNE
Lacrosse 4 Rocket 4.1 05:18:51 10° SSE 05:22:04 20° ESE 05:25:19 10° ENE
Cosmos 1869 3.5 05:18:23 10° S 05:22:21 75° E 05:26:21 10° NNE
PSLV R/B 3.9 05:18:33 10° N 05:22:42 72° WNW 05:26:48 10° SSW
Cosmos 1869 Rocket 3.5 05:20:43 10° NNW 05:25:11 74° W 05:29:37 10° S
PAYLOAD B 4.4 05:21:44 10° NNE 05:27:22 81° ESE 05:32:57 10° SSW
Cosmos 2228 Rocket 4.5 05:25:04 13° WSW 05:27:48 22° WNW 05:31:15 10° NNW
Cosmos 2112 Rocket 4.1 05:23:42 10° SSW 05:28:58 63° WNW 05:34:19 10° NNE
SL-16 R/B 3.5 05:25:34 10° NNW 05:31:02 46° ENE 05:36:28 10° SE
BREEZE-M DEB (TANK) 4.2 05:19:51 11° WSW 05:33:46 82° NNW 05:37:36 10° ENE
Cosmos 1833 Rocket 3.0 05:29:43 10° SW 05:35:14 54° WNW 05:40:48 10° NNE
IRS-1C Rocket 4.2 05:33:11 10° NNE 05:38:29 83° ESE 05:43:46 10° SSW
ATLAS 5 CENTAUR R/B 4.2 05:35:36 10° SSE 05:39:03 21° ESE 05:42:41 10° ENE
PSLV R/B 3.7 05:35:52 10° N 05:40:10 59° WNW 05:44:22 10° SSW
CZ-2D R/B 4.1 05:39:52 10° NNW 05:41:45 12° NW 05:43:38 10° WNW
Cosmos 2056 Rocket 3.6 05:39:06 10° NNW 05:44:27 67° WSW 05:49:49 10° S
Lacrosse 5 3.2 05:41:33 10° W 05:44:52 18° WSW 05:48:09 10° SSW
Timation 2 Rocket 4.0 05:41:31 10° SSW 05:47:32 89° WNW 05:53:47 10° NNE
CRYOSAT 2 4.4 05:42:51 10° N 05:47:44 90° W 05:52:35 10° S
Cosmos 2360 Rocket 4.5 05:44:26 10° N 05:49:20 29° NE 05:54:12 10° ESE
Cosmos 1980 Rocket 2.4 05:45:26 10° NW 05:50:51 50° WSW 05:56:15 10° S
